Location: Godiavel Galaoual
(15.2485°N, 12.6604°W)
Time: 12:38:02
(UTC+00:00)

LightSail 2 - Pass Details

Date: 12 June 2020
Orbit: 692 x 720 km, 24.0° (Epoch: 14 July)

Event Time Altitude Azimuth Distance (km) Brightness Sun altitude
Exits shadow 05:10:00 12° 190° (S) 2,046 7.1 -15.9°
Drops below altitude 10° 05:10:58 10° 179° (S) 2,177 7.4 -15.7°
Sets 05:14:45 0° 152° (SSE) 3,101 8.4 -14.9°
